This demonstration page uses our WeatherBlox Daily Observations layout. Learn more.

Left ArrowRight Arrow

Hourly Observations for September 10, 2020

Temp ( °F °C ) Dew Point ( °F °C ) Humidity (%) Winds ( mph kmh ) Pressure ( in mb ) Visibility ( mi km ) Precip ( " mm )
12:07 am 00:07 Cloudy 50 10 43 6.1 77 77 NNE 12 19 30.29 1026 10 16 0.00 0.00
12:25 am 00:25 Cloudy 50 10 43 6.1 77 77 NNE 9 15 30.29 1026 10 16 0.00 0.00
12:37 am 00:37 Cloudy 50 10 43 6.1 77 77 NNE 12 19 30.28 1025 10 16 0.00 0.00
12:53 am 00:53 Cloudy 50 10 43 6.1 77 77 NNE 10 17 30.25 1024 10 16 0.00 0.00
1:09 am 01:09 Cloudy 50 10 43 6.1 77 77 NE 12 19 30.28 1025 10 16 0.00 0.00
1:53 am 01:53 Cloudy 50 10 43 6.1 77 77 NNE 10 17 30.25 1025 10 16 0.00 0.00
2:53 am 02:53 Cloudy 49 9.4 44 6.7 83 83 N 13 20 30.24 1024 10 16 0.00 0.00
3:00 am 03:00 Cloudy 48 8.9 44 6.7 86 86 N 13 20 30.30 1026 8 13 0.00 0.00
3:12 am 03:12 Cloudy with Mist and Fog 48 8.9 45 7.2 89 89 N 10 17 30.30 1026 5 8 0.00 0.00
3:33 am 03:33 Cloudy 48 8.9 44 6.7 86 86 NNE 10 17 30.31 1027 9 14 0.00 0.00
3:53 am 03:53 Cloudy with Mist and Fog 47 8.3 44 6.7 90 90 N 13 20 30.26 1025 6 10 0.00 0.00
4:02 am 04:02 Cloudy with Mist and Fog 47 8.3 45 7.2 93 93 N 13 20 30.31 1026 3 5 0.00 0.00
4:12 am 04:12 Cloudy with Mist and Fog 47 8.3 45 7.2 93 93 NNE 12 19 30.31 1026 6 10 0.00 0.00
4:53 am 04:53 Cloudy 48 8.9 44 6.7 86 86 NNE 10 17 30.27 1025 10 16 0.00 0.00
5:39 am 05:39 Cloudy 48 8.9 44 6.7 86 86 N 13 20 30.32 1027 10 16 0.00 0.00
5:53 am 05:53 Cloudy 48 8.9 44 6.7 86 86 N 13 20 30.28 1025 10 16 0.00 0.00
6:22 am 06:22 Cloudy 48 8.9 44 6.7 86 86 N 9 15 30.32 1027 10 16 0.00 0.00
6:29 am 06:29 Cloudy 48 8.9 44 6.7 86 86 N 9 15 30.32 1027 10 16 0.00 0.00
6:53 am 06:53 Cloudy 48 8.9 44 6.7 86 86 N 12 19 30.27 1025 10 16 0.00 0.00
7:48 am 07:48 Cloudy 48 9 45 7 87 87 N 9 15 30.33 1027 10 16 0.00 0.00
7:53 am 07:53 Cloudy 48 8.9 44 6.7 86 86 N 9 15 30.29 1026 10 16 0.00 0.00
8:53 am 08:53 Cloudy 49 9.4 44 6.7 83 83 NNE 10 17 30.31 1026 10 16 0.00 0.00
9:25 am 09:25 Cloudy 49 9.4 43 6.1 80 80 NE 9 15 30.35 1028 10 16 0.00 0.00
9:53 am 09:53 Cloudy 49 9.4 44 6.7 83 83 NE 8 13 30.32 1027 10 16 0.00 0.00
10:53 am 10:53 Cloudy 50 10 44 6.7 80 80 NNE 8 13 30.33 1027 10 16 0.00 0.00
11:27 am 11:27 Cloudy 51 10.6 44 6.7 77 77 NNE 9 15 30.37 1028 10 16 0.00 0.00
11:53 am 11:53 Cloudy 51 10.6 44 6.7 77 77 NNW 8 13 30.33 1027 10 16 0.00 0.00
12:53 pm 12:53 Cloudy 52 11.1 44 6.7 75 75 VRB 6 9 30.32 1027 10 16 0.00 0.00
1:53 pm 13:53 Cloudy 54 12.2 44 6.7 69 69 VRB 5 7 30.31 1026 10 16 0.00 0.00
2:53 pm 14:53 Cloudy 56 13.3 45 7.2 67 67 N 7 11 30.28 1025 10 16 0.00 0.00
3:53 pm 15:53 Cloudy 56 13.3 45 7.2 67 67 N 6 9 30.26 1025 10 16 0.00 0.00
4:31 pm 16:31 Cloudy 57 13.9 45 7.2 64 64 N 5 7 30.25 1024 10 16 0.00 0.00
4:53 pm 16:53 Cloudy 58 14.4 46 7.8 65 65 NNE 6 9 30.24 1024 10 16 0.00 0.00
5:44 pm 17:44 Cloudy 58 14.4 46 7.8 65 65 N 3 6 30.24 1024 10 16 0.00 0.00
5:53 pm 17:53 Cloudy 59 15 46 7.8 62 62 E 5 7 30.23 1024 10 16 0.00 0.00
6:41 pm 18:41 Cloudy 58 14.4 46 7.8 65 65 WNW 3 6 30.24 1024 10 16 0.00 0.00
6:53 pm 18:53 Cloudy 58 14.4 46 7.8 65 65 N 6 9 30.23 1024 10 16 0.00 0.00
7:14 pm 19:14 Cloudy 59 15 46 7.8 62 62 Calm 30.22 1023 10 16 0.00 0.00
7:53 pm 19:53 Cloudy 58 14.4 46 7.8 65 65 N 5 7 30.22 1024 10 16 0.00 0.00
8:53 pm 20:53 Cloudy 58 14.4 47 8.3 67 67 NNW 5 7 30.23 1024 10 16 0.00 0.00
9:53 pm 21:53 Cloudy 58 14.4 48 8.9 70 70 SSE 5 7 30.24 1024 10 16 0.00 0.00
10:53 pm 22:53 Cloudy 58 14.4 48 8.9 70 70 SSE 6 9 30.25 1025 10 16 0.00 0.00
11:25 pm 23:25 Cloudy 58 14.4 49 9.4 72 72 S 5 7 30.26 1025 10 16 0.00 0.00
11:53 pm 23:53 Cloudy 56 13.3 50 10 81 81 SSE 7 11 30.26 1025 10 16 0.00 0.00

Powered by AerisWeather